Tracking 19817 objects as of 18-Aug-2019
HD Live streaming from Space Station
objects crossing your sky now

GORIZONT 30

Track GORIZONT 30 now!
GORIZONT 30 is classified as:


NORAD ID: 23108
Int'l Code: 1994-030A
Perigee: 35,774.9 km
Apogee: 35,796.3 km
Inclination: 14.8 °
Period: 1,435.7 minutes
Semi major axis: 42156 km
RCS: 12.5892 m2 (large)
Launch date: May 20, 1994
Source: Commonwealth of Independent States (former USSR) (CIS)
Launch site: TYURATAM MISSILE AND SPACE COMPLEX (TTMTR)
aabbcc
Your satellite tracking list
Your tracking list is empty




NASA's NSSDC Master Catalog

Two Line Element Set (TLE):
1 23108U 94030A   19229.17718799 -.00000210  00000-0  00000+0 0  9995
2 23108  14.8370   8.5302 0002540 290.2362  65.2535  1.00300848 92463
Source of the keplerian elements: AFSPC